This demonstration page uses our WeatherBlox Daily Observations layout. Learn more.

40.92945, -100.16068

Hourly Observations for January 3, 2017

Temp ( °F °C ) Dew Point ( °F °C ) Humidity (%) Winds ( mph kmh ) Pressure ( in mb ) Visibility ( mi km ) Precip ( " mm )
12:15 am 00:15 Clear 17 -8.5 9 -13 70 70 NNW 15 24 30.3 1026 10 16.0934 0 0
12:35 am 00:35 Clear 16 -8.8 8 -13.5 69 69 NNW 16 26 30.3 1026 10 16.0934 0 0
12:55 am 00:55 Clear 16 -9 8 -13.5 70 70 NNW 17 28 30.3 1026 10 16.0934 0 0
1:15 am 01:15 Clear 15 -9.3 7 -13.7 71 71 NNW 20 31 30.3 1026 10 16.0934 0 0
1:35 am 01:35 Clear 14 -9.8 6 -14.6 68 68 NNW 16 26 30.36 1028 10 16.0934 0 0
1:55 am 01:55 Clear 14 -10 6 -14.2 72 72 NNW 16 26 30.36 1028 10 16.0934 0 0
2:15 am 02:15 Clear 14 -10.1 6 -14.6 70 70 NNW 17 28 30.36 1028 10 16.0934 0 0
2:35 am 02:35 Clear 14 -10.2 6 -14.7 70 70 NNW 15 24 30.36 1028 10 16.0934 0 0
2:55 am 02:55 Clear 14 -10.2 6 -14.7 70 70 NNW 16 26 30.36 1028 10 16.0934 0 0
3:15 am 03:15 Clear 14 -10.2 5 -14.8 69 69 NNW 21 33 30.39 1029 10 16.0934 0 0
3:35 am 03:35 Clear 13 -10.3 5 -15.1 68 68 NNW 18 30 30.39 1029 10 16.0934 0 0
3:55 am 03:55 Clear 13 -10.5 4 -15.3 68 68 NNW 20 31 30.39 1029 10 16.0934 0 0
4:15 am 04:15 Clear 13 -10.7 4 -15.4 69 69 NNW 15 24 30.39 1029 10 16.0934 0 0
4:35 am 04:35 Clear 12 -11 4 -15.4 70 70 NNW 14 22 30.39 1029 10 16.0934 0 0
4:55 am 04:55 Clear 12 -11.2 4 -15.5 71 71 NNW 16 26 30.36 1028 10 16.0934 0 0
5:15 am 05:15 Clear 12 -11.3 4 -15.5 71 71 NNW 15 24 30.36 1028 10 16.0934 0 0
5:35 am 05:35 Clear 11 -11.5 4 -15.3 74 74 NNW 15 24 30.36 1028 10 16.0934 0 0
5:55 am 05:55 Clear 11 -11.6 4 -15.5 73 73 NNW 12 19 30.39 1029 10 16.0934 0 0
6:15 am 06:15 Clear 11 -11.7 4 -15.5 74 74 NNW 14 22 30.39 1029 10 16.0934 0 0
6:35 am 06:35 Clear 11 -11.7 4 -15.6 73 73 NNW 18 30 30.39 1029 10 16.0934 0 0
6:55 am 06:55 Clear 11 -11.6 4 -15.7 72 72 NNW 18 30 30.42 1030 10 16.0934 0 0
7:15 am 07:15 Clear 11 -11.5 4 -15.8 71 71 NNW 20 31 30.42 1030 10 16.0934 0 0
7:35 am 07:35 Mostly Cloudy 13 -10.7 4 -15.6 68 68 NNW 22 35 30.42 1030 10 16.0934 0 0
7:55 am 07:55 Cloudy 13 -10.7 4 -15.7 67 67 NNW 21 33 30.42 1030 10 16.0934 0 0
8:15 am 08:15 Cloudy 13 -10.5 4 -15.5 67 67 NNW 17 28 30.45 1031 10 16.0934 0 0
8:35 am 08:35 Cloudy 13 -10.5 4 -15.7 66 66 N 24 39 30.45 1031 10 16.0934 0 0
8:55 am 08:55 Cloudy 13 -10.4 4 -15.6 66 66 NNW 22 35 30.48 1032 10 16.0934 0 0
9:15 am 09:15 Cloudy 13 -10.3 4 -15.6 65 65 NNW 23 37 30.48 1032 10 16.0934 0 0
9:35 am 09:35 Cloudy 14 -10.2 4 -15.5 65 65 N 15 24 30.48 1032 10 16.0934 0 0
9:55 am 09:55 Cloudy 14 -10 4 -15.5 64 64 N 21 33 30.48 1032 10 16.0934 0 0
10:15 am 10:15 Cloudy 14 -10.1 4 -15.7 64 64 N 25 41 30.5 1033 10 16.0934 0.03 0.762
10:35 am 10:35 Cloudy 14 -9.8 4 -15.6 63 63 N 20 31 30.5 1033 10 16.0934 0.03 0.762
10:55 am 10:55 undefined 14 -9.9 4 -15.8 62 62 undefined N/A 30.5 1033 N/A 0 0
11:15 am 11:15 Partly Cloudy 16 -9 4 -15.5 60 60 N 21 33 30.48 1032 10 16.0934 0 0
11:35 am 11:35 Partly Cloudy 17 -8.4 5 -15.2 58 58 N 20 31 30.45 1031 10 16.0934 0 0
11:55 am 11:55 Mostly Cloudy 18 -7.8 5 -15 57 57 N 17 28 30.48 1032 10 16.0934 0 0
12:15 pm 12:15 Cloudy 18 -8 5 -15 58 58 N 20 31 30.48 1032 10 16.0934 0 0
12:35 pm 12:35 Cloudy 17 -8.2 5 -15.2 57 57 NNW 22 35 30.48 1032 10 16.0934 0 0
12:55 pm 12:55 Mostly Cloudy 18 -7.9 5 -15.1 57 57 NNW 18 30 30.48 1032 10 16.0934 0 0
1:15 pm 13:15 Sunny 19 -7.3 5 -15 55 55 N 16 26 30.45 1031 10 16.0934 0 0
1:35 pm 13:35 Sunny 20 -6.7 5 -14.8 53 53 NNW 12 19 30.45 1031 10 16.0934 0 0
1:55 pm 13:55 Sunny 20 -6.4 6 -14.7 52 52 N 14 22 30.45 1031 10 16.0934 0 0
2:15 pm 14:15 Sunny 21 -6.3 6 -14.7 52 52 N 16 26 30.45 1031 10 16.0934 0 0
2:35 pm 14:35 Sunny 21 -6 6 -14.6 51 51 NNW 14 22 30.45 1031 10 16.0934 0 0
2:55 pm 14:55 Sunny 21 -6.1 5 -15 50 50 N 17 28 30.45 1031 10 16.0934 0 0
3:15 pm 15:15 Sunny 21 -6.1 5 -15.1 49 49 N 15 24 30.45 1031 10 16.0934 0 0
3:35 pm 15:35 Sunny 21 -6.2 4 -15.5 48 48 N 18 30 30.45 1031 10 16.0934 0 0
3:55 pm 15:55 Sunny 20 -6.4 4 -15.6 48 48 N 16 26 30.45 1031 10 16.0934 0 0
4:15 pm 16:15 Sunny 20 -6.6 4 -15.5 50 50 N 15 24 30.45 1031 10 16.0934 0 0
4:35 pm 16:35 Sunny 19 -7 4 -15.7 50 50 N 12 19 30.45 1031 10 16.0934 0 0
4:55 pm 16:55 Sunny 19 -7.5 3 -16.2 50 50 N 15 24 30.45 1031 10 16.0934 0 0
5:15 pm 17:15 Sunny 17 -8.1 4 -15.8 54 54 N 8 13 30.45 1031 10 16.0934 0 0
5:35 pm 17:35 Clear 16 -8.9 3 -16 57 57 N 9 15 30.48 1032 10 16.0934 0 0
5:55 pm 17:55 Clear 15 -9.5 4 -15.8 60 60 N 9 15 30.48 1032 10 16.0934 0 0
6:15 pm 18:15 Clear 14 -10.1 3 -16 62 62 N 9 15 30.5 1033 10 16.0934 0 0
6:35 pm 18:35 Clear 13 -10.7 3 -16.1 65 65 N 8 13 30.5 1033 10 16.0934 0 0
6:55 pm 18:55 Clear 11 -11.5 3 -16.1 69 69 N 7 11 30.53 1034 10 16.0934 0 0
7:15 pm 19:15 Clear 12 -11 3 -16 67 67 N 7 11 30.5 1033 10 16.0934 0 0
7:35 pm 19:35 Clear 12 -11.2 3 -16 68 68 N 8 13 30.53 1034 10 16.0934 0 0
7:55 pm 19:55 Clear 12 -11.2 3 -16 68 68 N 7 11 30.53 1034 10 16.0934 0 0
8:15 pm 20:15 Clear 12 -11.3 3 -16 69 69 NNW 8 13 30.56 1035 10 16.0934 0 0
8:35 pm 20:35 Clear 11 -11.4 3 -16 69 69 NNW 8 13 30.56 1035 10 16.0934 0 0
8:55 pm 20:55 Clear 12 -11.1 3 -16.1 67 67 NNW 8 13 30.56 1035 10 16.0934 0 0
9:15 pm 21:15 Clear 11 -11.4 3 -16.2 68 68 NNW 8 13 30.56 1035 10 16.0934 0 0
9:35 pm 21:35 Clear 10 -12 2 -16.5 69 69 N 7 11 30.53 1034 10 16.0934 0 0
9:55 pm 21:55 Clear 9 -12.8 2 -16.6 73 73 NNW 5 7 30.53 1034 10 16.0934 0 0
10:15 pm 22:15 Clear 8 -13.6 1 -17 76 76 N 8 13 30.53 1034 10 16.0934 0 0
10:35 pm 22:35 Clear 7 -13.7 1 -17 76 76 N 7 11 30.53 1034 10 16.0934 0 0
10:55 pm 22:55 Clear 8 -13.6 1 -17 76 76 N 5 7 30.53 1034 10 16.0934 0 0
11:15 pm 23:15 Clear 7 -13.7 1 -17 76 76 NNW 5 7 30.53 1034 10 16.0934 0 0
11:35 pm 23:35 Partly Cloudy 8 -13.6 1 -17.1 75 75 N 6 9 30.53 1034 10 16.0934 0 0
11:55 pm 23:55 Partly Cloudy 8 -13.5 2 -16.9 76 76 WNW 6 9 30.53 1034 10 16.0934 0 0

Powered by AerisWeather